This is the latest recevied weather packets stored in our database for station/object OE3APM-13. If no packets are shown the sender has not sent any weather packets the latest 10 day(s).
| Time | Temp. | Humidity | Pressure | Rain* | Wind** | Luminosity | Snow |
|---|---|---|---|---|---|---|---|
| 1777456344 | 11.67° C | 36% | 1023.9 hPa | 0 mm | - | 844 W/m² | - |
| 1777456045 | 11.67° C | 36% | 1023.9 hPa | 0 mm | - | 838 W/m² | - |
| 1777455741 | 11.67° C | 35% | 1023.9 hPa | 0 mm | - | 835 W/m² | - |
| 1777455438 | 11.67° C | 36% | 1023.9 hPa | 0 mm | - | 828 W/m² | - |
| 1777455137 | 11.11° C | 35% | 1024 hPa | 0 mm | - | 826 W/m² | - |
| 1777454838 | 11.11° C | 38% | 1023.7 hPa | 0 mm | - | 823 W/m² | - |
| 1777454539 | 11.11° C | 35% | 1023.9 hPa | 0 mm | - | 812 W/m² | - |
| 1777454238 | 11.11° C | 36% | 1023.9 hPa | 0 mm | - | 810 W/m² | - |
| 1777453938 | 11.11° C | 34% | 1023.9 hPa | 0 mm | - | 805 W/m² | - |
| 1777453637 | 11.11° C | 35% | 1024 hPa | 0 mm | - | 795 W/m² | - |
| 1777453338 | 11.11° C | 34% | 1024 hPa | 0 mm | - | 789 W/m² | - |
| 1777453034 | 11.11° C | 35% | 1024 hPa | 0 mm | - | 784 W/m² | - |
| 1777452727 | 10.56° C | 35% | 1023.9 hPa | 0 mm | - | 775 W/m² | - |
| 1777452426 | 10.56° C | 36% | 1024.1 hPa | 0 mm | - | 765 W/m² | - |
| 1777452126 | 10.56° C | 35% | 1024 hPa | 0 mm | - | 758 W/m² | - |
| 1777451825 | 10.56° C | 35% | 1024 hPa | 0 mm | - | 749 W/m² | - |
| 1777451527 | 10.56° C | 39% | 1024 hPa | 0 mm | - | 738 W/m² | - |
| 1777451226 | 10.56° C | 37% | 1024 hPa | 0 mm | - | 728 W/m² | - |
| 1777450928 | 10.56° C | 36% | 1024 hPa | 0 mm | - | 722 W/m² | - |
| 1777450626 | 10° C | 39% | 1024 hPa | 0 mm | - | 712 W/m² | - |
| 1777450327 | 10° C | 38% | 1023.9 hPa | 0 mm | - | 698 W/m² | - |
| 1777450025 | 10° C | 36% | 1023.9 hPa | 0 mm | - | 689 W/m² | - |
| 1777449726 | 10° C | 39% | 1023.9 hPa | 0 mm | - | 677 W/m² | - |
| 1777449425 | 10° C | 37% | 1023.9 hPa | 0 mm | - | 664 W/m² | - |
| 1777449125 | 10° C | 38% | 1024 hPa | 0 mm | - | 654 W/m² | - |
* Rain latest hour (hover to see other rain measurements)
** Current wind speed in m/s (hover to see current wind gust speed)